Brussels, Belgium

6:05 AM CEST on August 21, 2017 (GMT +0200)
Brussels Airport

Weather History for EBBR - March, 2014

Change the Weather History Date:

Wednesday, March 26, 2014

  Actual Average Record
Temperature  
Mean Temperature 41 °F -  
Max Temperature 50 °F 55 °F 64 °F (2003)
Min Temperature 32 °F 40 °F 27 °F (2013)
Degree Days  
Heating Degree Days 24    
Moisture  
Dew Point 32 °F    
Average Humidity 71    
Maximum Humidity 93    
Minimum Humidity 21    
Precipitation  
Precipitation 0.00 in - - ()
Sea Level Pressure  
Sea Level Pressure 29.95 in    
Wind  
Wind Speed 3 mph ()    
Max Wind Speed 10 mph    
Max Gust Speed -    
Visibility 7.4 miles    
Events      
Averages and records for this station are not official NWS values.
T = Trace of Precipitation, MM = Missing Value Source: Averaged Metar Reports

Daily Weather History Graph

Daily Weather History Graph

Search for Another Location

Airport or City:

Trip Planner

Search our weather history database for the weather conditions in past years. The results will help you decide how hot, cold, wet, or windy it might be!

Date:

Astronomy

Mar. 26, 2014 Rise Set
Actual Time 6:31 AM CET 7:04 PM CET
Civil Twilight 5:58 AM CET 7:37 PM CET
Nautical Twilight 5:19 AM CET 8:17 PM CET
Astronomical Twilight 4:37 AM CET 8:58 PM CET
Moon 3:57 AM CET (3/26) 1:57 PM CET (3/26)
Length of Visible Light 13h 39m
Length of Day
12h 32m
Waning Crescent, 24% of the Moon is Illuminated
Mar 26
Waning Crescent
Mar 30
New
Apr 7
First Quarter
Apr 15
Full
Apr 22
Last Quarter

Hourly Weather History & Observations

Time (CET) Temp. Windchill Dew Point Humidity Pressure Visibility Wind Dir Wind Speed Gust Speed Precip Events Conditions
12:00 AM 37 °F - 31 °F 72% 29.92 in 9 mi NNE 4.5 mph - -   Scattered Clouds
12:20 AM 37.4 °F 33.8 °F 30.2 °F 75% 29.89 in - NE 4.6 mph - N/A   Clear
12:50 AM 37.4 °F - 28.4 °F 70% 29.92 in - NE 2.3 mph - N/A   Clear
1:00 AM 37 °F - 29 °F 62% 29.93 in 7 mi NE 2.2 mph - -  
1:20 AM 37.4 °F 34.9 °F 30.2 °F 75% 29.92 in - NNE 3.5 mph - N/A   Clear
1:50 AM 35.6 °F - 28.4 °F 75% 29.92 in - North 2.3 mph - N/A   Clear
2:00 AM 35 °F - 28 °F 67% 29.93 in 7 mi North 2.2 mph - -  
2:20 AM 33.8 °F 30.8 °F 28.4 °F 81% 29.92 in - NNE 3.5 mph - N/A   Clear
2:50 AM 33.8 °F 30.8 °F 28.4 °F 81% 29.92 in - NE 3.5 mph - N/A   Clear
3:00 AM 34 °F - 29 °F 73% 29.94 in 7 mi NE 2.2 mph - -  
3:20 AM 33.8 °F - 30.2 °F 87% 29.92 in - NNE 2.3 mph - N/A   Clear
3:50 AM 33.8 °F 30.8 °F 28.4 °F 81% 29.92 in - North 3.5 mph - N/A   Clear
4:00 AM 33 °F - 28 °F 76% 29.95 in 7 mi North 2.2 mph - -  
4:20 AM 33.8 °F - 28.4 °F 81% 29.92 in - North 2.3 mph - N/A   Clear
4:50 AM 33.8 °F - 30.2 °F 87% 29.92 in - NNW 2.3 mph - N/A   Clear
5:00 AM 34 °F - 30 °F 79% 29.95 in 7 mi NNW 2.2 mph - -  
5:20 AM 33.8 °F - 30.2 °F 87% 29.95 in - NNW 2.3 mph - N/A   Clear
5:50 AM 32.0 °F - 30.2 °F 93% 29.95 in - NNW 1.2 mph - N/A   Clear
6:00 AM 32 °F - 29 °F 86% 29.96 in 6 mi NNW 2.2 mph - -   Clear
6:20 AM 32.0 °F - 30.2 °F 93% 29.95 in - Variable 2.3 mph - N/A   Clear
6:50 AM 33.8 °F 30.8 °F 30.2 °F 87% 29.95 in 5.6 mi NW 3.5 mph - N/A   Unknown
7:00 AM 33 °F - 30 °F 84% 29.98 in 6 mi NW 4.5 mph - -   Clear
7:20 AM 33.8 °F 30.8 °F 30.2 °F 87% 29.95 in 5.6 mi NW 3.5 mph - N/A   Unknown
7:50 AM 35.6 °F 32.8 °F 32.0 °F 87% 29.98 in 5.0 mi North 3.5 mph - N/A   Unknown
8:00 AM 36 °F - 32 °F 81% 29.99 in 5 mi North 2.2 mph - -   Clear
8:20 AM 37.4 °F - 33.8 °F 87% 29.98 in 5.0 mi North 2.3 mph - N/A   Unknown
8:50 AM 39.2 °F 37.0 °F 33.8 °F 81% 29.98 in 5.0 mi North 3.5 mph - N/A   Unknown
9:00 AM 39 °F - 34 °F 76% 30.00 in 5 mi North 2.2 mph - -   Clear
9:20 AM 41.0 °F 39.0 °F 35.6 °F 81% 29.98 in 5.0 mi NNE 3.5 mph - N/A   Unknown
9:50 AM 42.8 °F - 37.4 °F 81% 29.98 in 6.2 mi Calm Calm - N/A   Partly Cloudy
10:00 AM 42 °F - 37 °F 76% 30.00 in 6 mi Calm Calm - -   Scattered Clouds
10:20 AM 42.8 °F - 35.6 °F 76% 29.98 in 6.2 mi Variable 2.3 mph - N/A   Partly Cloudy
10:50 AM 44.6 °F 42.2 °F 35.6 °F 71% 29.98 in 6.2 mi North 4.6 mph - N/A   Partly Cloudy
11:00 AM 44 °F - 36 °F 64% 30.00 in 9 mi North 4.5 mph - -   Scattered Clouds
11:20 AM 44.6 °F 42.2 °F 33.8 °F 66% 29.98 in 6.2 mi NNE 4.6 mph - N/A   Partly Cloudy
11:50 AM 46.4 °F 45.2 °F 35.6 °F 66% 29.98 in 6.2 mi NNE 3.5 mph - N/A   Partly Cloudy
12:00 PM 46 °F - 35 °F 55% 29.99 in 9 mi NNE 4.5 mph - -   Partly Cloudy
12:20 PM 46.4 °F 45.2 °F 30.2 °F 53% 29.98 in 6.2 mi Variable 3.5 mph - N/A   Partly Cloudy
12:50 PM 48.2 °F - 32.0 °F 54% 29.98 in 6.2 mi NW 3.5 mph - N/A   Partly Cloudy
1:00 PM 47 °F - 32 °F 43% 29.98 in 9 mi NW 2.2 mph - -   Partly Cloudy
1:20 PM 48.2 °F - 30.2 °F 50% 29.95 in 6.2 mi Variable 2.3 mph - N/A   Partly Cloudy
1:50 PM 50.0 °F - 28.4 °F 43% 29.95 in 6.2 mi Calm Calm - N/A   Partly Cloudy
2:00 PM 49 °F - 28 °F 32% 29.97 in 9 mi Calm Calm - -   Scattered Clouds
2:20 PM 48.2 °F - 26.6 °F 43% 29.95 in 6.2 mi NNE 3.5 mph - N/A   Partly Cloudy
2:50 PM 50.0 °F - 23.0 °F 35% 29.95 in 6.2 mi Calm Calm - N/A   Partly Cloudy
3:00 PM 50 °F - 22 °F 21% 29.95 in 9 mi Calm Calm - -   Scattered Clouds
3:20 PM 46.4 °F 41.5 °F 33.8 °F 62% 29.92 in 6.2 mi North 10.4 mph - N/A   Partly Cloudy
3:50 PM 46.4 °F 42.9 °F 35.6 °F 66% 29.92 in 6.2 mi North 6.9 mph - N/A   Partly Cloudy
4:00 PM 47 °F - 35 °F 53% 29.95 in 9 mi North 6.7 mph - -   Scattered Clouds
4:20 PM 46.4 °F 42.9 °F 33.8 °F 62% 29.92 in 6.2 mi North 6.9 mph - N/A   Partly Cloudy
4:50 PM 46.4 °F 43.5 °F 32.0 °F 57% 29.92 in 6.2 mi North 5.8 mph - N/A   Partly Cloudy
5:00 PM 47 °F - 32 °F 45% 29.94 in 9 mi North 4.5 mph - -   Scattered Clouds
5:20 PM 46.4 °F 43.5 °F 32.0 °F 57% 29.92 in 6.2 mi NNW 5.8 mph - N/A   Partly Cloudy
5:50 PM 44.6 °F 42.2 °F 33.8 °F 66% 29.92 in 6.2 mi NW 4.6 mph - N/A   Partly Cloudy
6:00 PM 45 °F - 33 °F 52% 29.95 in 16 mi NW 4.5 mph - -   Scattered Clouds
6:20 PM 42.8 °F 39.3 °F 33.8 °F 70% 29.95 in 6.2 mi NE 5.8 mph - N/A   Partly Cloudy
6:50 PM 41.0 °F 37.1 °F 33.8 °F 76% 29.95 in 6.2 mi North 5.8 mph - N/A   Partly Cloudy
7:00 PM 40 °F - 34 °F 71% 29.96 in 16 mi North 4.5 mph - -   Scattered Clouds
7:20 PM 39.2 °F 35.0 °F 33.8 °F 81% 29.95 in 6.2 mi NNE 5.8 mph - N/A   Partly Cloudy
7:50 PM 37.4 °F - 32.0 °F 81% 29.95 in 6.2 mi NE 2.3 mph - N/A   Partly Cloudy
8:00 PM 38 °F - 31 °F 69% 29.98 in 16 mi NE 2.2 mph - -   Scattered Clouds
8:20 PM 39.2 °F 35.9 °F 33.8 °F 81% 29.95 in 6.2 mi NE 4.6 mph - N/A   Partly Cloudy
8:50 PM 39.2 °F 37.0 °F 33.8 °F 81% 29.98 in - East 3.5 mph - N/A   Clear
9:00 PM 40 °F - 33 °F 68% 29.99 in 12 mi East 4.5 mph - -   Scattered Clouds
9:20 PM 39.2 °F 37.0 °F 33.8 °F 81% 29.98 in - ENE 3.5 mph - N/A   Clear
9:50 PM 37.4 °F - 32.0 °F 81% 29.98 in - North 1.2 mph - N/A   Clear
10:00 PM 36 °F - 32 °F 78% 29.99 in 12 mi Calm Calm - -   Scattered Clouds
10:20 PM 39.2 °F - 33.8 °F 81% 29.98 in - ENE 2.3 mph - N/A   Clear
10:50 PM 37.4 °F 33.8 °F 33.8 °F 87% 29.95 in - East 4.6 mph - N/A   Clear
11:00 PM 37 °F - 33 °F 79% 29.98 in 12 mi East 4.5 mph - -   Scattered Clouds
11:20 PM 37.4 °F 34.9 °F 33.8 °F 87% 29.95 in - East 3.5 mph - N/A   Clear
11:50 PM 35.6 °F - 32.0 °F 87% 29.95 in - ENE 1.2 mph - N/A   Clear